Location: Bouillancy
(49.1149°N, 2.9308°E)
Time: 22:39:11
(UTC+00:00)

Cosmos 1689 Rocket - Pass Details

Date: 30 September 2020
Orbit: 362 x 378 km, 97.5° (Epoch: 25 October)

Event Time Altitude Azimuth Distance (km) Brightness Sun altitude
Rises 17:59:02 0° 12° (NNE) 2,262 5.9 -5.8°
Reaches altitude 10° 18:01:00 10° 11° (N) 1,400 4.8 -6.2°
Maximum altitude 18:03:59 79° 285° (WNW) 389 2.2 -6.7°
Drops below altitude 10° 18:06:55 10° 198° (SSW) 1,377 5.1 -7.1°
Sets 18:08:50 0° 197° (SSW) 2,218 6.1 -7.4°
